Location: Niedergestelen
(46.3129°N, 7.7822°E)
Time: 13:53:50
(UTC+00:00)

Cosmos 1867 - Pass Details

Date: 01 December 2020
Orbit: 775 x 800 km, 65.0° (Epoch: 27 January)

Event Time Altitude Azimuth Distance (km) Brightness Sun altitude
Rises 16:31:02 0° 226° (SW) 3,268 8.3 -8.0°
Reaches altitude 10° 16:33:28 10° 230° (SW) 2,346 7.5 -8.4°
Maximum altitude 16:38:48 60° 310° (NW) 906 4.0 -9.2°
Drops below altitude 10° 16:44:12 10° 31° (NNE) 2,375 5.6 -10.1°
Enters shadow 16:44:57 - 33° (NNE) 2,655 5.8 -10.2°
